TimeCDT,TemperatureF,Dew PointF,Humidity,Sea Level PressureIn,VisibilityMPH,Wind Direction,Wind SpeedMPH,Gust SpeedMPH,PrecipitationIn,Events,Conditions,WindDirDegrees,DateUTC
12:15 AM,71.1,58.1,63,29.81,10.0,SE,13.8,-,N/A,,Clear,140,2013-10-11 05:15:00
12:35 AM,70.2,58.1,65,29.81,10.0,SE,13.8,-,N/A,,Clear,140,2013-10-11 05:35:00
12:55 AM,69.8,58.3,67,29.81,10.0,SE,13.8,-,N/A,,Clear,140,2013-10-11 05:55:00
1:15 AM,69.3,58.3,68,29.80,10.0,SE,15.0,-,N/A,,Clear,140,2013-10-11 06:15:00
1:35 AM,69.3,58.3,68,29.80,10.0,SE,16.1,-,N/A,,Clear,140,2013-10-11 06:35:00
1:55 AM,69.3,58.5,68,29.81,10.0,SSE,11.5,-,N/A,,Clear,150,2013-10-11 06:55:00
2:15 AM,68.9,58.6,70,29.82,10.0,SE,8.1,-,N/A,,Clear,140,2013-10-11 07:15:00
2:35 AM,68.0,58.6,72,29.82,10.0,SE,8.1,-,N/A,,Clear,130,2013-10-11 07:35:00
2:55 AM,67.8,58.8,73,29.82,10.0,SE,9.2,-,N/A,,Clear,130,2013-10-11 07:55:00
3:15 AM,66.9,58.6,75,29.82,10.0,ESE,9.2,-,N/A,,Clear,120,2013-10-11 08:15:00
3:35 AM,65.8,58.5,77,29.82,10.0,ESE,9.2,-,N/A,,Clear,110,2013-10-11 08:35:00
3:55 AM,65.3,58.5,78,29.82,10.0,East,9.2,-,N/A,,Clear,100,2013-10-11 08:55:00
4:15 AM,65.5,58.5,78,29.82,10.0,ESE,11.5,-,N/A,,Clear,120,2013-10-11 09:15:00
4:35 AM,65.3,58.6,79,29.82,10.0,SE,10.4,-,N/A,,Clear,130,2013-10-11 09:35:00
4:55 AM,66.6,59.0,77,29.82,10.0,SE,12.7,-,N/A,,Clear,140,2013-10-11 09:55:00
5:15 AM,66.0,58.8,78,29.82,10.0,SE,11.5,-,N/A,,Clear,140,2013-10-11 10:15:00
5:35 AM,65.3,58.6,79,29.82,10.0,SE,11.5,-,N/A,,Clear,130,2013-10-11 10:35:00
5:55 AM,64.9,58.8,81,29.82,10.0,SE,10.4,-,N/A,,Clear,140,2013-10-11 10:55:00
6:15 AM,64.6,58.5,80,29.83,10.0,SSE,3.5,-,N/A,,Clear,160,2013-10-11 11:15:00
6:35 AM,64.4,58.6,82,29.83,10.0,SSE,5.8,-,N/A,,Clear,150,2013-10-11 11:35:00
6:55 AM,64.4,59.0,83,29.83,10.0,SSE,10.4,-,N/A,,Clear,150,2013-10-11 11:55:00
7:15 AM,64.2,58.8,83,29.84,10.0,SSE,8.1,-,N/A,,Clear,150,2013-10-11 12:15:00
7:35 AM,63.5,58.5,84,29.85,10.0,SSE,6.9,-,N/A,,Clear,160,2013-10-11 12:35:00
7:55 AM,62.8,58.1,85,29.85,10.0,SSE,4.6,-,N/A,,Clear,160,2013-10-11 12:55:00
8:15 AM,64.0,59.0,84,29.86,10.0,South,5.8,-,N/A,,Clear,190,2013-10-11 13:15:00
8:35 AM,64.0,59.0,84,29.86,10.0,South,6.9,-,N/A,,Clear,190,2013-10-11 13:35:00
8:55 AM,65.3,59.2,81,29.87,10.0,SSW,8.1,-,N/A,,Clear,210,2013-10-11 13:55:00
9:15 AM,67.1,58.8,75,29.87,10.0,SSW,9.2,-,N/A,,Clear,210,2013-10-11 14:15:00
9:35 AM,69.3,57.4,66,29.87,10.0,SW,9.2,-,N/A,,Clear,220,2013-10-11 14:35:00
9:55 AM,71.1,55.0,57,29.88,10.0,SW,9.2,-,N/A,,Clear,220,2013-10-11 14:55:00
10:15 AM,73.0,45.5,37,29.88,10.0,WSW,10.4,-,N/A,,Clear,240,2013-10-11 15:15:00
10:35 AM,74.8,41.5,30,29.88,10.0,WSW,11.5,-,N/A,,Clear,240,2013-10-11 15:35:00
10:55 AM,75.7,37.2,25,29.88,10.0,WSW,9.2,-,N/A,,Clear,240,2013-10-11 15:55:00
11:15 AM,77.0,35.4,22,29.87,10.0,SW,10.4,17.3,N/A,,Clear,230,2013-10-11 16:15:00
11:35 AM,78.8,34.3,20,29.87,10.0,SW,13.8,18.4,N/A,,Clear,220,2013-10-11 16:35:00
11:55 AM,80.1,34.9,20,29.87,10.0,SW,12.7,19.6,N/A,,Clear,230,2013-10-11 16:55:00
12:15 PM,80.8,31.3,17,29.87,10.0,SW,12.7,18.4,N/A,,Clear,220,2013-10-11 17:15:00
12:35 PM,81.3,30.2,16,29.86,10.0,SW,15.0,-,N/A,,Clear,230,2013-10-11 17:35:00
12:55 PM,81.7,30.6,16,29.86,10.0,WSW,16.1,20.7,N/A,,Clear,250,2013-10-11 17:55:00
1:15 PM,83.5,29.8,14,29.85,10.0,WSW,16.1,21.9,N/A,,Clear,240,2013-10-11 18:15:00
1:35 PM,84.4,29.1,14,29.84,10.0,WSW,18.4,24.2,N/A,,Clear,240,2013-10-11 18:35:00
1:55 PM,85.1,29.7,13,29.83,10.0,West,16.1,24.2,N/A,,Clear,260,2013-10-11 18:55:00
2:15 PM,86.2,30.0,13,29.82,10.0,WSW,15.0,26.5,N/A,,Clear,240,2013-10-11 19:15:00
2:35 PM,86.9,28.8,12,29.81,10.0,WSW,18.4,25.3,N/A,,Clear,240,2013-10-11 19:35:00
2:55 PM,88.0,29.8,12,29.80,10.0,SW,20.7,28.8,N/A,,Clear,230,2013-10-11 19:55:00
3:15 PM,87.8,29.5,12,29.79,10.0,SW,12.7,23.0,N/A,,Clear,220,2013-10-11 20:15:00
3:35 PM,88.7,30.0,12,29.79,10.0,WSW,17.3,31.1,N/A,,Clear,240,2013-10-11 20:35:00
3:55 PM,89.4,30.6,12,29.79,7.0,SW,23.0,36.8,N/A,,Clear,220,2013-10-11 20:55:00
4:15 PM,89.6,31.1,12,29.78,10.0,SW,17.3,29.9,N/A,,Clear,230,2013-10-11 21:15:00
4:35 PM,89.1,31.3,13,29.78,10.0,SW,20.7,31.1,N/A,,Clear,230,2013-10-11 21:35:00
4:55 PM,89.1,31.1,13,29.78,10.0,WSW,25.3,31.1,N/A,,Clear,240,2013-10-11 21:55:00
5:15 PM,88.7,31.6,13,29.78,10.0,WSW,19.6,26.5,N/A,,Clear,250,2013-10-11 22:15:00
5:35 PM,88.9,31.6,13,29.78,10.0,SW,18.4,23.0,N/A,,Clear,230,2013-10-11 22:35:00
5:55 PM,88.5,32.0,13,29.78,10.0,SW,15.0,-,N/A,,Clear,230,2013-10-11 22:55:00
6:15 PM,87.8,31.8,13,29.79,10.0,SW,17.3,24.2,N/A,,Clear,230,2013-10-11 23:15:00
6:35 PM,86.7,31.8,14,29.79,10.0,SW,11.5,-,N/A,,Clear,230,2013-10-11 23:35:00
6:55 PM,84.9,32.0,15,29.80,10.0,WSW,10.4,-,N/A,,Clear,240,2013-10-11 23:55:00
7:15 PM,82.2,32.0,16,29.81,10.0,WSW,9.2,-,N/A,,Clear,250,2013-10-12 00:15:00
7:35 PM,79.2,32.0,18,29.82,10.0,WSW,5.8,-,N/A,,Clear,250,2013-10-12 00:35:00
7:55 PM,77.7,32.2,19,29.82,10.0,WSW,4.6,-,N/A,,Clear,250,2013-10-12 00:55:00
8:15 PM,75.2,32.4,21,29.83,10.0,SW,3.5,-,N/A,,Clear,230,2013-10-12 01:15:00
8:35 PM,73.2,34.0,24,29.84,10.0,SW,5.8,-,N/A,,Clear,220,2013-10-12 01:35:00
8:55 PM,71.4,33.6,25,29.85,10.0,South,4.6,-,N/A,,Clear,190,2013-10-12 01:55:00
9:15 PM,70.9,35.1,27,29.85,7.0,SSW,5.8,-,N/A,,Clear,210,2013-10-12 02:15:00
9:35 PM,71.6,33.8,25,29.85,10.0,South,4.6,-,N/A,,Clear,190,2013-10-12 02:35:00
9:55 PM,73.2,33.4,23,29.86,10.0,South,4.6,-,N/A,,Clear,180,2013-10-12 02:55:00
10:15 PM,73.8,33.1,23,29.86,10.0,South,3.5,-,N/A,,Clear,190,2013-10-12 03:15:00
10:35 PM,71.1,33.8,25,29.87,10.0,Calm,Calm,-,N/A,,Clear,0,2013-10-12 03:35:00
10:55 PM,70.0,34.2,27,29.87,7.0,Calm,Calm,-,N/A,,Clear,0,2013-10-12 03:55:00
11:15 PM,62.1,40.1,44,29.88,10.0,NW,5.8,-,N/A,,Clear,320,2013-10-12 04:15:00
11:35 PM,63.1,37.9,39,29.88,10.0,Calm,Calm,-,N/A,,Clear,0,2013-10-12 04:35:00
11:55 PM,63.7,38.3,39,29.88,10.0,Calm,Calm,-,N/A,,Clear,0,2013-10-12 04:55:00